TITAN 3C TRANSTAGE DEB, 1646

Orbit data source: Space-Track

TITAN 3C TRANSTAGE DEB, 1646 is space debris in LEO originally from a launch on Fri, 15 Oct 1965 UTC launched from the Air Force Eastern Test Range (AFETR). Debris objects in space refer to the collection of defunct objects orbiting the Earth. Examples of debris include non-operational satellites, rocket bodies, and fragments generated from explosions, collisions, or faulty payload assembly.

Loading next visibility...
TITAN 3C TRANSTAGE DEB details
Identifier
1646, 1965-082H
Orbit
LEO
Last TLE update1 day ago
Origin
Flag of USUSAF SSD (US)
ManufacturerUnknown
MissionSpacecraft
Bus & MotorUnknown
MassUnknown
Launch date (UTC)
1965-10-15 (59 years ago)
Launch vehicleUnknown
Launch site
Air Force Eastern Test Range (AFETR)
Object type
Payload
Rocket body
Debris
Shape & HBRUnknown
Radar Cross Section1.500 m², Large (>1 m²)

Expand to show TLE details & history

TLE from 1 day ago
0 TITAN 3C TRANSTAGE DEB
1 01646U 65082H   25022.53010820  .00003164  00000-0  44715-3 0  9996
2 01646  32.3078 197.0833 0002996 260.0924  99.9390 14.75885271144637
Epoch: 2025-01-22T12:43Z
Definitive object data (Epoch: 2025-01-22T12:43:21.348Z)
Latitude-0.00001°
Longitude-115.87633°
Altitude641.365 km
Speed7.539 km/s
True Right ascension13h 08m 19s
True Declination0° 00' 00"
Sunlit
Object was in daylight at TLE epoch
Visualization TLE readout
Latitude-13.85183°
Longitude-146.00799°
Altitude642.822 km
Speed7.539 km/s
Apparent Right ascension09h 27m 13s
Apparent Declination-29° 33' 53"
Sunlit
Object is in full shadow
Visualization observer readout
Local Sidereal Time19:02:11
Azimuth277.925° WNW
Elevation-58.71°
Doppler factor1
Orbital elements
Apogee altitude648.038 km
Perigee altitude643.829 km
Semi-major axis7,024.07 km
Eccentricity0.0002996
Inclination32.3078°
RAAN197.0833°
Arg. of periapsis260.0924°
True anomaly99.97281°
Mean anomaly99.939°
Eccentric anomaly99.95591°
Mean motion3.68689 °/min
BSTAR0.00044715
Orbital period97.64 mins
Loading maneuver chart data...

TITAN 3C TRANSTAGE DEB Visibility forecast

Observer location: undefined°, undefined

Span
Click to sort rows by Start time (UTC) header in descending order
Start Az.
Max El. time (UTC)
Max El. Az.
Max El.
End time (UTC)
End Az.
7 mins2025-01-23 18:20:23.954Z244.384° WSW2025-01-23 18:24:23.954Z177.056° S25.632°2025-01-23 18:27:23.954Z132.561° SE
6 mins2025-01-24 15:19:23.954Z209.023° SW2025-01-24 15:22:23.954Z157.439° SSE22.251°2025-01-24 15:25:23.954Z115.063° SE
6 mins2025-01-24 17:02:23.954Z228.744° WSW2025-01-24 17:04:23.954Z191.101° SSW27.723°2025-01-24 17:08:23.954Z121.685° SE
|